EW0729 Weather Reports


Display with metric or nautical units.
time (UTC)temp
F
wind
direction
speed
MPH
gust
MPH
rain 1hr
in
rain 24hr
in
rain mn
in
humidity
%
barometer
mb
20181216003546 36 130 2.0 7.0 0.00 0.00 0.00 71 1020.7
20181216003023 35 175 2.0 7.0 0.00 0.00 0.00 70 1020.8
20181216002610 36 184 2.0 10.0 0.00 0.00 0.00 70 1020.9
20181216001609 36 193 2.0 10.0 0.00 0.00 0.00 70 1020.9
20181216000610 36 171 2.0 8.0 0.00 0.00 0.00 69 1020.9
20181216000005 36 185 3.0 7.0 0.00 0.00 0.00 69 1020.9
20181215235633 36 122 3.0 8.0 0.00 0.00 0.00 69 1020.8
20181215234620 37 143 2.0 8.0 0.00 0.00 0.00 68 1020.9
20181215233548 37 178 2.0 8.0 0.00 0.00 0.00 68 1021.2
20181215233003 36 173 3.0 8.0 0.00 0.00 0.00 67 1021.1
20181215232525 37 174 1.0 7.0 0.00 0.00 0.00 67 1021.0
20181215231527 37 180 1.0 5.0 0.00 0.00 0.00 67 1021.1
20181215230540 37 194 1.0 7.0 0.00 0.00 0.00 66 1021.2
20181215230007 37 157 2.0 8.0 0.00 0.00 0.00 66 1021.2
20181215225506 37 156 2.0 7.0 0.00 0.00 0.00 66 1021.2
20181215224506 37 167 2.0 8.0 0.00 0.00 0.00 65 1021.4
20181215224451 38 169 1.0 7.0 0.00 0.00 0.00 65 1021.3
20181215223417 38 117 1.0 4.0 0.00 0.00 0.00 65 1021.5
20181215222345 39 148 1.0 5.0 0.00 0.00 0.00 65 1021.6
20181215221507 39 199 1.0 7.0 0.00 0.00 0.00 65 1021.7
20181215221402 39 180 2.0 7.0 0.00 0.00 0.00 65 1021.7
20181215220400 40 202 2.0 7.0 0.00 0.00 0.00 65 1021.7
20181215220006 39 192 1.0 5.0 0.00 0.00 0.00 65 1021.7
20181215215344 40 252 2.0 6.0 0.00 0.00 0.00 65 1021.7
20181215214516 40 178 1.0 7.0 0.00 0.00 0.00 65 1021.9
20181215214408 40 180 2.0 6.0 0.00 0.00 0.00 65 1021.8
20181215213421 40 213 1.0 7.0 0.00 0.00 0.00 65 1021.7
20181215212411 41 227 2.0 7.0 0.00 0.00 0.00 65 1021.6
20181215211514 40 197 2.0 7.0 0.00 0.00 0.00 66 1021.6
20181215211341 41 190 2.0 6.0 0.00 0.00 0.00 66 1021.6
20181215210357 41 207 1.0 5.0 0.00 0.00 0.00 66 1021.5
20181215205339 41 205 2.0 6.0 0.00 0.00 0.00 66 1021.6
20181215204508 40 188 2.0 7.0 0.00 0.00 0.00 67 1021.7
20181215204400 41 194 1.0 6.0 0.00 0.00 0.00 67 1021.7
20181215203343 41 185 2.0 6.0 0.00 0.00 0.00 67 1021.7
20181215202333 41 174 3.0 9.0 0.00 0.00 0.00 67 1021.6
20181215201306 41 140 2.0 9.0 0.00 0.00 0.00 67 1021.5
20181215200259 41 213 3.0 12.0 0.00 0.00 0.00 67 1021.6
20181215200009 40 200 2.0 11.0 0.00 0.00 0.00 68 1021.6
20181215195246 41 176 3.0 12.0 0.00 0.00 0.00 68 1021.4
20181215194239 41 214 3.0 9.0 0.00 0.00 0.00 69 1021.5
20181215193003 40 214 1.0 8.0 0.00 0.00 0.00 69 1021.6
20181215192238 40 182 4.0 15.0 0.00 0.00 0.00 69 1021.7
20181215191207 40 202 3.0 11.0 0.00 0.00 0.00 70 1021.7
20181215190212 40 248 2.0 10.0 0.00 0.00 0.00 70 1022.0
20181215190002 40 186 2.0 8.0 0.00 0.00 0.00 71 1022.2
20181215185222 41 215 3.0 10.0 0.00 0.00 0.00 71 1022.2
20181215184159 41 230 2.0 13.0 0.00 0.00 0.00 72 1022.2
20181215183218 41 196 4.0 13.0 0.00 0.00 0.00 73 1022.1
20181215183011 40 171 7.0 14.0 0.00 0.00 0.00 73 1022.2
20181215182203 40 183 5.0 10.0 0.00 0.00 0.00 74 1022.2
20181215181157 40 180 3.0 10.0 0.00 0.00 0.00 75 1022.3
20181215180136 40 193 3.0 8.0 0.00 0.00 0.00 76 1022.3
20181215175107 39 189 3.0 9.0 0.00 0.00 0.00 77 1022.3
20181215174509 38 181 3.0 10.0 0.00 0.00 0.00 77 1022.4
20181215174043 39 143 3.0 9.0 0.00 0.00 0.00 78 1022.4
20181215173056 38 132 3.0 13.0 0.00 0.00 0.00 78 1022.5
20181215173004 38 139 3.0 10.0 0.00 0.00 0.00 78 1022.7
20181215172056 38 183 3.0 13.0 0.00 0.00 0.00 79 1022.7
20181215171506 37 196 2.0 14.0 0.00 0.00 0.00 80 1022.9
20181215171105 37 135 5.0 13.0 0.00 0.00 0.00 80 1022.9
20181215170048 36 128 5.0 10.0 0.00 0.00 0.00 81 1022.9
20181215165034 36 155 4.0 10.0 0.00 0.00 0.00 82 1023.1
20181215164504 35 144 5.0 11.0 0.00 0.00 0.00 83 1023.3
20181215164033 35 167 4.0 10.0 0.00 0.00 0.00 83 1023.3
20181215163028 34 153 3.0 9.0 0.00 0.00 0.00 84 1023.4
20181215162029 33 118 3.0 7.0 0.00 0.00 0.00 85 1023.7
20181215161505 32 123 4.0 8.0 0.00 0.00 0.00 85 1023.8
20181215161000 32 162 3.0 8.0 0.00 0.00 0.00 86 1023.8
20181215160015 32 130 3.0 8.0 0.00 0.00 0.00 86 1023.7
20181215155012 31 163 2.0 7.0 0.00 0.00 0.00 87 1023.8
20181215154504 30 160 3.0 7.0 0.00 0.00 0.00 87 1023.8
20181215153939 30 171 2.0 7.0 0.00 0.00 0.00 87 1023.8
20181215152949 29 170 2.0 6.0 0.00 0.00 0.00 88 1023.9
20181215152002 28 141 2.0 6.0 0.00 0.00 0.00 88 1023.9
20181215151504 27 139 3.0 7.0 0.00 0.00 0.00 88 1023.9
20181215151020 27 130 2.0 6.0 0.00 0.00 0.00 88 1023.9
20181215150004 27 127 1.0 4.0 0.00 0.00 0.00 89 1024.0
20181215145021 26 131 1.0 3.0 0.00 0.00 0.00 89 1024.0
20181215144521 25 122 2.0 4.0 0.00 0.00 0.00 89 1024.1
20181215144006 26 125 1.0 3.0 0.00 0.00 0.00 89 1024.0
20181215142942 25 119 0.0 3.0 0.00 0.00 0.00 89 1023.8
20181215141927 25 142 1.0 6.0 0.00 0.00 0.00 89 1023.8
20181215141533 24 123 2.0 4.0 0.00 0.00 0.00 89 1023.9
20181215140926 24 112 2.0 6.0 0.00 0.00 0.00 89 1023.9
20181215135909 24 117 2.0 5.0 0.00 0.00 0.00 89 1024.0
20181215134904 24 124 1.0 5.0 0.00 0.00 0.00 88 1024.0
20181215134515 23 113 3.0 6.0 0.00 0.00 0.00 88 1024.0
20181215133837 24 107 1.0 4.0 0.00 0.00 0.00 89 1024.0
20181215132854 24 130 1.0 4.0 0.00 0.00 0.00 88 1024.0
20181215131853 25 104 1.0 3.0 0.00 0.00 0.00 89 1024.0
20181215131503 25 103 1.0 3.0 0.00 0.00 0.00 89 1024.1
20181215130859 26 121 1.0 3.0 0.00 0.00 0.00 89 1023.9
20181215125910 27 139 1.0 3.0 0.00 0.00 0.00 89 1023.9
20181215124905 27 139 0.0 2.0 0.00 0.00 0.00 89 1023.9
20181215124508 26 134 1.0 3.0 0.00 0.00 0.00 89 1024.0
20181215123924 26 133 0.0 3.0 0.00 0.00 0.00 89 1023.8
20181215122935 26 139 1.0 3.0 0.00 0.00 0.00 89 1023.9
20181215122000 26 108 1.0 2.0 0.00 0.00 0.00 89 1023.8
20181215121516 25 132 2.0 3.0 0.00 0.00 0.00 89 1023.9
20181215121008 25 134 1.0 2.0 0.00 0.00 0.00 88 1023.8
20181215120028 25 117 1.0 3.0 0.00 0.00 0.00 88 1023.7
20181215115009 24 126 1.0 3.0 0.00 0.00 0.00 88 1023.8
20181215114503 24 126 1.0 4.0 0.00 0.00 0.00 88 1023.7
20181215114010 24 124 0.0 3.0 0.00 0.00 0.00 88 1023.7
20181215112952 24 113 0.0 2.0 0.00 0.00 0.00 87 1023.6
20181215111926 24 130 0.0 1.0 0.00 0.00 0.00 87 1023.6
20181215111509 23 130 0.0 3.0 0.00 0.00 0.00 87 1023.7
20181215110932 24 130 0.0 2.0 0.00 0.00 0.00 87 1023.7
20181215105901 23 146 0.0 1.0 0.00 0.00 0.00 87 1023.5
20181215104846 22 144 0.0 1.0 0.00 0.00 0.00 86 1023.6
20181215104504 22 142 1.0 2.0 0.00 0.00 0.00 86 1023.6
20181215103837 22 142 0.0 2.0 0.00 0.00 0.00 85 1023.6
20181215102805 22 142 0.0 2.0 0.00 0.00 0.00 85 1023.5
20181215101733 23 225 0.0 0.0 0.00 0.00 0.00 85 1023.7
20181215101502 23 225 0.0 0.0 0.00 0.00 0.00 85 1023.7
20181215100727 24 224 0.0 0.0 0.00 0.00 0.00 85 1023.7
20181215100009 24 225 0.0 0.0 0.00 0.00 0.00 85 1023.7
20181215095654 25 225 0.0 0.0 0.00 0.00 0.00 85 1023.6
20181215094700 25 224 0.0 0.0 0.00 0.00 0.00 85 1023.6
20181215093628 24 225 0.0 0.0 0.00 0.00 0.00 84 1023.6
20181215093016 23 224 0.0 0.0 0.00 0.00 0.00 84 1023.8
20181215092603 24 225 0.0 0.0 0.00 0.00 0.00 84 1023.8
20181215091616 24 224 0.0 0.0 0.00 0.00 0.00 84 1023.8
20181215090556 25 225 0.0 0.0 0.00 0.00 0.00 84 1023.9
20181215090002 24 224 0.0 0.0 0.00 0.00 0.00 84 1023.9
20181215085523 25 225 0.0 0.0 0.00 0.00 0.00 84 1023.9
20181215084510 25 225 0.0 0.0 0.00 0.00 0.00 84 1024.0
20181215083442 25 225 0.0 0.0 0.00 0.00 0.00 84 1023.9
20181215083003 25 225 0.0 0.0 0.00 0.00 0.00 85 1023.9
20181215082437 26 225 0.0 0.0 0.00 0.00 0.00 85 1023.8
20181215081410 26 225 0.0 0.0 0.00 0.00 0.00 84 1023.9
20181215080357 25 225 0.0 0.0 0.00 0.00 0.00 84 1023.8
20181215080003 24 225 0.0 0.0 0.00 0.00 0.00 84 1023.8
20181215075355 25 225 0.0 0.0 0.00 0.00 0.00 84 1023.7
20181215074328 25 225 0.0 0.0 0.00 0.00 0.00 83 1023.6
20181215073339 26 225 0.0 0.0 0.00 0.00 0.00 83 1023.7
20181215073012 26 225 0.0 1.0 0.00 0.00 0.00 83 1023.8
20181215072329 27 225 0.0 0.0 0.00 0.00 0.00 83 1023.6
20181215071321 27 225 0.0 0.0 0.00 0.00 0.00 83 1023.6
20181215070312 27 225 0.0 0.0 0.00 0.00 0.00 83 1023.9
20181215070003 27 225 0.0 0.0 0.00 0.00 0.00 83 1024.0
20181215065247 27 225 0.0 0.0 0.00 0.00 0.00 83 1024.0
20181215064302 27 225 0.0 0.0 0.00 0.00 0.00 83 1024.0
20181215063241 27 224 0.0 0.0 0.00 0.00 0.00 83 1024.1
20181215062228 27 225 0.0 0.0 0.00 0.00 0.00 83 1024.2
20181215061503 26 224 0.0 0.0 0.00 0.00 0.00 82 1024.4
20181215061224 27 225 0.0 0.0 0.00 0.00 0.00 83 1024.3
20181215060220 28 224 0.0 0.0 0.00 0.00 0.00 82 1024.3
20181215055148 28 225 0.0 0.0 0.00 0.00 0.00 82 1024.3
20181215054518 28 225 0.0 0.0 0.00 0.00 0.00 82 1024.5
20181215054133 28 225 0.0 0.0 0.00 0.00 0.00 82 1024.4
20181215053106 29 225 0.0 0.0 0.00 0.00 0.00 82 1024.5
20181215052104 29 225 0.0 0.0 0.00 0.00 0.00 82 1024.6
20181215051522 28 225 0.0 0.0 0.00 0.00 0.00 82 1024.8
20181215051116 29 225 0.0 0.0 0.00 0.00 0.00 82 1024.7
20181215050046 30 224 0.0 0.0 0.00 0.00 0.00 82 1024.8
20181215045022 30 225 0.0 0.0 0.00 0.00 0.00 82 1024.8
20181215044509 29 225 0.0 0.0 0.00 0.00 0.00 82 1024.9
20181215044005 30 225 0.0 0.0 0.00 0.00 0.00 82 1024.9
20181215043026 29 224 0.0 0.0 0.00 0.00 0.00 81 1025.1
20181215042948 29 225 0.0 0.0 0.00 0.00 0.00 81 1025.1
20181215041916 29 225 0.0 0.0 0.00 0.00 0.00 81 1025.0
20181215040850 29 224 0.0 0.0 0.00 0.00 0.00 81 1025.0
20181215040014 29 224 0.0 0.0 0.00 0.00 0.00 81 1025.1
20181215035913 29 225 0.0 0.0 0.00 0.00 0.00 81 1025.1
20181215034848 29 225 0.0 0.0 0.00 0.00 0.00 81 1025.2
20181215033819 29 224 0.0 0.0 0.00 0.00 0.00 81 1025.2
20181215032828 29 225 0.0 0.0 0.00 0.00 0.00 80 1025.1
20181215031826 29 225 0.0 0.0 0.00 0.00 0.00 80 1025.2
20181215031504 28 224 0.0 0.0 0.00 0.00 0.00 80 1025.4
20181215030830 29 224 0.0 0.0 0.00 0.00 0.00 80 1025.3
20181215025828 29 224 0.0 0.0 0.00 0.00 0.00 80 1025.1
20181215024850 29 225 0.0 0.0 0.00 0.00 0.00 79 1025.1
20181215024508 28 225 0.0 0.0 0.00 0.00 0.00 80 1025.1
20181215023836 29 224 0.0 0.0 0.00 0.00 0.00 79 1025.1
20181215022812 29 225 0.0 0.0 0.00 0.00 0.00 79 1025.1
20181215021829 29 225 0.0 0.0 0.00 0.00 0.00 78 1025.0
20181215021505 29 224 0.0 2.0 0.00 0.00 0.00 78 1025.0
20181215020824 29 224 0.0 0.0 0.00 0.00 0.00 78 1025.0
20181215015757 29 224 0.0 0.0 0.00 0.00 0.00 78 1025.1
20181215014754 30 223 0.0 1.0 0.00 0.00 0.00 78 1025.0
20181215014504 30 223 0.0 2.0 0.00 0.00 0.00 78 1025.1
20181215013727 31 194 0.0 0.0 0.00 0.00 0.00 77 1025.0
20181215012712 31 194 0.0 0.0 0.00 0.00 0.00 77 1025.1
20181215011723 31 193 0.0 3.0 0.00 0.00 0.00 77 1025.0
20181215011504 31 198 0.0 4.0 0.00 0.00 0.00 77 1025.1
20181215010733 32 196 0.0 2.0 0.00 0.00 0.00 77 1025.0
20181215005701 32 278 0.0 0.0 0.00 0.00 0.00 77 1024.9
20181215004632 32 278 0.0 0.0 0.00 0.00 0.00 76 1024.9
20181215004504 31 278 0.0 0.0 0.00 0.00 0.00 76 1024.9